Printer-friendly version

IAU Minor Planet Center

Minor Planet Center

MPEC 2007-F60 : 2007 FT3

The following Minor Planet Electronic Circular may be linked-to from your own Web pages, but must not otherwise be redistributed electronically.


Read MPEC 2007-F59 Read MPEC 2007-F61


M.P.E.C. 2007-F60                                Issued 2007 Mar. 21, 16:36 UT

     The Minor Planet Electronic Circulars contain information on unusual
         minor planets and routine data on comets.  They are published
   on behalf of Commission 20 of the International Astronomical Union by the
          Minor Planet Center, Smithsonian Astrophysical Observatory,
                          Cambridge, MA 02138, U.S.A.

             Prepared using the Tamkin Foundation Computer Network

                              MPC@CFA.HARVARD.EDU
          URL http://cfa-www.harvard.edu/iau/mpc.html  ISSN 1523-6714

                                   2007 FT3

Observations:
     K07F03T* C2007 03 20.45448 16 43 08.22 -20 11 43.7          19.0 V EF060G96
     K07F03T  C2007 03 20.45722 16 43 09.30 -20 12 07.6          18.7 V EF060G96
     K07F03T  C2007 03 20.45993 16 43 10.38 -20 12 30.9          19.0 V EF060G96
     K07F03T  C2007 03 20.46266 16 43 11.42 -20 12 54.2          18.9 V EF060G96
     K07F03T  C2007 03 20.52848 16 43 37.28 -20 22 20.2          17.2 V EF060G96
     K07F03T  C2007 03 20.52933 16 43 37.56 -20 22 28.3          17.7 V EF060G96
     K07F03T  C2007 03 20.52976 16 43 37.81 -20 22 31.4          17.9 V EF060G96
     K07F03T  C2007 03 21.40242 16 49 52.45 -22 30 55.0                 EF060G96
     K07F03T  C2007 03 21.40302 16 49 52.75 -22 31 00.9                 EF060G96
     K07F03T  C2007 03 21.40407 16 49 53.20 -22 31 09.9                 EF060G96
     K07F03T  C2007 03 21.42001 16 50 00.04 -22 33 35.3          19.5 V EF060G96
     K07F03T  C2007 03 21.42043 16 50 00.20 -22 33 38.9          19.0 V EF060G96

Observer details:
G96 Mt. Lemmon Survey.  Observer A. R. Gibbs.  Measurers E. C. Beshore,
    E. J. Christensen, G. J. Garradd, A. R. Gibbs, A. D. Grauer, R. E. Hill,
    R. A. Kowalski, S. M. Larson, R. H. McNaught.  1.5-m reflector + CCD.

Orbital elements:
2007 FT3                                            PHA, Earth MOID = 0.0175 AU
Epoch 2007 Apr. 10.0 TT = JDT 2454200.5                 MPC
M 314.78344              (2000.0)            P               Q
n   0.81719224     Peri.  277.62326     +0.28386905     +0.95551320
a   1.1330608      Node    10.02698     -0.59261915     +0.24048613
e   0.3155510      Incl.   27.38301     -0.75380428     +0.17076573
P   1.21           H   19.7           G   0.15           U   9
Residuals in seconds of arc
070320 G96  0.1-  0.2+    070320 G96  0.1+  0.3+    070321 G96  0.3+  0.4-
070320 G96  0.0   0.1-    070320 G96  0.7-  0.4-    070321 G96  0.2+  0.2+
070320 G96  0.3+  0.1-    070320 G96  0.5+  0.2+    070321 G96  0.1+  0.0
070320 G96  0.2-  0.1+    070321 G96  0.3-  0.0     070321 G96  0.2-  0.2+

Ephemeris:
2007 FT3                 a,e,i = 1.13, 0.32, 27                  q = 0.7755
Date    TT    R. A. (2000) Decl.     Delta      r     Elong.  Phase     V
2007 03 21    16 46.92   -21 30.2    0.190    1.067   106.9    63.3    18.5
2007 03 26    17 32.71   -35 18.8    0.166    1.040   100.3    70.6    18.4
2007 03 31    18 50.39   -49 47.1    0.160    1.013    90.7    80.3    18.6
2007 04 05    20 50.65   -58 38.7    0.172    0.986    80.5    89.6    19.0
2007 04 10    22 51.48   -58 49.3    0.200    0.960    72.3    96.3    19.6
2007 04 15    00 09.35   -54 37.3    0.237    0.934    66.4   100.2    20.1
2007 04 20    00 54.18   -49 45.2    0.279    0.909    62.2   102.0    20.4
2007 04 25    01 21.52   -45 15.1    0.325    0.884    59.2   102.5    20.7
2007 04 30    01 39.66   -41 11.7    0.372    0.862    56.8   102.0    21.0
2007 05 05    01 52.69   -37 27.6    0.420    0.841    55.0   100.9    21.1
2007 05 10    02 02.80   -33 55.1    0.468    0.822    53.5    99.3    21.2
2007 05 15    02 11.21   -30 28.6    0.516    0.806    52.3    97.3    21.3
2007 05 20    02 18.71   -27 04.0    0.563    0.793    51.4    95.0    21.3
2007 05 25    02 25.77   -23 38.9    0.609    0.784    50.6    92.5    21.4
2007 05 30    02 32.76   -20 12.0    0.653    0.778    50.1    89.8    21.4
2007 06 04    02 39.92   -16 42.9    0.696    0.776    49.8    87.0    21.4
2007 06 09    02 47.42   -13 12.0    0.737    0.777    49.6    84.2    21.4

Kyle E. Smalley              (C) Copyright 2007 MPC           M.P.E.C. 2007-F60

Read MPEC 2007-F59 Read MPEC 2007-F61


Our Web policy. Index to the CBAT/MPC/ICQ pages.


Valid HTML 4.01!